Location: Hepcat Sky Observatory
(29.9800°N, 95.6500°W)
Time: 08:33:43
(UTC-05:00)

Daily predictions for brighter satellites

Satellite Brightness Start Highest point End
(mag) Time Altitude Azimuth Time Altitude Azimuth Time Altitude Azimuth
CZ-4C R/B 3.5 20:16:59 10° NNW 20:23:58 42° NE 20:31:28 10° SE
Cosmos 2227 Rocket 2.2 20:19:20 10° NNW 20:25:01 77° ENE 20:30:39 10° SSE
Cosmos 1980 Rocket 2.4 20:21:29 10° S 20:26:51 49° ESE 20:32:15 10° NNE
SeaSat 1 2.6 20:22:45 10° NE 20:27:34 52° ESE 20:32:21 10° S
Cosmos 1378 Rocket 3.9 20:23:38 10° N 20:27:54 45° E 20:32:07 10° SSE
ASC 2 Rocket 4.4 20:22:23 10° W 20:29:29 46° S 20:34:22 10° ESE
Sich 1 Rocket 3.5 20:26:14 10° S 20:30:37 84° E 20:35:00 10° N
Tiangong 1 3.9 20:32:38 10° NNW 20:33:20 11° NNW 20:34:02 10° N
BREEZE-M DEB (TANK) 1.6 20:32:46 10° SW 20:35:04 83° SE 20:38:54 10° NE
Cosmos 921 Rocket 3.2 20:33:52 10° S 20:37:52 46° E 20:41:52 10° NNE
USA 186 3.0 20:37:46 10° SE 20:40:30 25° ENE 20:43:18 10° NNE
Cosmos 2026 Rocket 4.2 20:34:32 10° SSE 20:40:35 52° E 20:46:43 10° NNE
Cosmos 1674 Rocket 4.2 20:36:51 10° NNW 20:41:06 58° W 20:45:23 10° S
Envisat 3.9 20:39:11 10° SE 20:43:33 30° ENE 20:47:56 10° NNE
ERBS 2.3 20:40:08 10° SSW 20:43:35 68° SE 20:47:02 10° NE
Cosmos 1697 Rocket 3.3 20:38:09 10° SSW 20:43:40 61° WNW 20:49:15 10° NNE
Cosmos 1975 Rocket 3.7 20:39:34 10° NNE 20:43:41 35° E 20:47:44 10° SSE
GOES 2 Rocket 3.4 20:39:06 10° W 20:44:43 69° S 20:48:36 14° ESE
H-2A R/B 3.0 20:41:26 10° S 20:45:17 72° W 20:49:05 10° NNW
Meteor 1-14 Rocket 4.4 20:40:17 10° S 20:46:00 79° W 20:51:39 10° N
Cosmos 1633 3.1 20:43:36 10° SSE 20:46:55 37° E 20:50:16 10° NNE
Cosmos 2056 Rocket 3.9 20:42:41 10° SSW 20:47:44 67° WNW 20:52:53 10° N
Cosmos 1461 3.2 20:45:29 10° NNW 20:49:57 63° ENE 20:54:14 12° SE
SJ-6B 3.7 20:48:24 10° S 20:52:16 53° W 20:56:15 10° NNW
Meteor 1-25 Rocket 4.3 20:46:28 10° S 20:52:19 89° W 20:58:10 10° N
Intercosmos 25 Rocket 3.1 20:56:14 10° N 20:59:26 70° W 21:02:42 10° S
ISS -1.5 20:57:53 10° WNW 21:00:21 20° SW 21:02:49 10° S
Cosmos 1939 Rocket 3.9 20:59:35 19° ESE 21:01:25 27° ENE 21:04:47 10° NNE
Cosmos 2360 4.2 20:55:45 10° SSW 21:01:27 88° ESE 21:07:10 10° NNE
Cosmos 1812 2.7 20:59:24 10° N 21:03:17 89° W 21:07:08 10° S
Meteor 1-18 Rocket 4.3 20:58:05 10° N 21:04:00 71° E 21:09:54 10° SSE
Palapa 6 Rocket 4.4 20:59:19 10° WSW 21:04:45 43° S 21:09:05 20° ESE
Cosmos 1602 4.2 21:01:37 11° SSE 21:05:03 37° E 21:08:37 10° NNE
USA 267 3.9 20:58:52 10° SSE 21:05:13 53° SW 21:11:37 10° NW
Helios 1B rocket 3.4 21:02:49 10° NE 21:06:17 26° E 21:07:26 23° SE
Okean 2 Rocket 3.1 21:02:30 10° S 21:06:58 90° WNW 21:11:29 10° N
OAO 3 Rocket 3.3 21:03:43 10° WNW 21:08:25 66° SSW 21:11:11 24° SE
Cosmos 1452 Rocket 3.4 21:06:33 10° S 21:11:48 76° ESE 21:17:05 10° NNE
Cosmos 2297 Rocket 3.2 21:09:54 10° NW 21:15:15 45° WSW 21:20:34 10° S
Cosmos 1536 4.2 21:15:57 21° ENE 21:15:57 21° ENE 21:18:29 10° NE
SEDSat Delta rocket 4.0 21:09:55 10° W 21:16:45 86° SSW 21:20:45 25° ESE
Cosmos 1420 Rocket 4.0 21:13:01 10° S 21:18:04 56° ESE 21:23:08 10° NNE
Okean 1 3.2 21:14:12 10° N 21:18:09 64° E 21:20:21 25° SSE
Uosat 12 SS-18 rocket 4.4 21:13:55 10° S 21:18:12 50° ESE 21:23:14 10° NE
Cosmos 839 Rocket 4.1 21:12:42 10° SSW 21:19:16 80° WNW 21:25:26 10° NNE
Resurs 1-3 3.9 21:18:06 10° S 21:22:26 66° W 21:26:48 10° NNW
Lacrosse 5 rocket 3.4 21:22:33 10° NNE 21:24:18 13° NE 21:24:42 13° NE
ATLAS 2AS CENTAUR R/B 3.3 21:19:45 10° S 21:26:27 38° ESE 21:33:37 10° NE
Cosmos 407 Rocket 3.5 21:22:17 10° NNW 21:27:40 85° ENE 21:31:01 23° SSE
Cosmos 1190 Rocket 4.0 21:23:09 10° NNW 21:28:25 84° WSW 21:32:07 20° SSE
Helios 1A 3.5 21:28:45 36° E 21:29:18 38° ENE 21:33:15 10° N
Intelsat 5-1 Rocket 4.3 21:06:46 10° WSW 21:29:59 56° S 21:34:41 28° ESE
Cosmos 44 4.2 21:27:42 10° N 21:31:32 27° ENE 21:31:59 27° ENE
Cosmos 2322 Rocket 2.1 21:27:55 10° S 21:33:32 63° ESE 21:39:09 10° NNE
GPS 2-05 Rocket1 4.0 21:30:59 10° W 21:34:06 36° N 21:35:11 27° NNE
Cosmos 1417 Rocket 4.4 21:27:44 10° N 21:34:07 78° E 21:38:56 18° S
BREEZE-M DEB (TANK) 4.3 21:33:32 10° NNW 21:37:47 58° NE 21:45:26 27° ESE
NOSS 2-3 (E) 3.6 21:33:25 10° SSW 21:37:53 60° ESE 21:42:45 10° NE
ARGOS 4.4 21:41:52 23° ENE 21:41:52 23° ENE 21:45:45 10° NNE
SL-16 R/B 2.0 21:36:24 10° SSW 21:42:02 76° ESE 21:47:42 10° NNE
Cosmos 2263 Rocket 3.7 21:40:07 10° NNE 21:44:07 19° ENE 21:44:12 19° ENE
Cosmos 676 Rocket 3.9 21:38:58 10° NNW 21:44:18 78° ENE 21:46:08 42° SSE
Resurs 01 Rocket 3.4 21:42:22 10° SSW 21:46:15 30° W 21:50:10 10° NW
Delta 2 Rocket 4.1 21:43:15 10° SW 21:46:30 40° S 21:46:30 40° S
S3M 3.9 21:44:29 10° N 21:50:47 82° E 21:53:56 32° S
Cosmos 1553 Rocket 3.9 21:48:56 10° N 21:55:05 84° W 21:58:20 30° S
Meteosat 1 Rocket2 4.4 21:50:12 10° WSW 21:56:07 56° SSE 21:58:42 41° ESE
Cosmos 2266 Rocket 3.8 21:54:33 33° S 21:57:25 75° E 22:03:26 10° N
Skynet4D Del rocket 3.7 21:51:38 10° WSW 21:58:08 65° S 21:59:06 56° SE
Cosmos 1023 Rocket 4.4 21:53:36 10° NNW 21:58:51 73° ENE 21:59:28 65° ESE
Meteor 1-13 Rocket 4.2 21:53:35 10° N 21:59:34 88° E 22:01:35 44° S
Okean 1 Rocket 4.0 22:01:25 36° NNE 22:01:25 36° NNE 22:04:09 10° NNE
H-2A R/B 3.7 22:03:02 20° NE 22:03:02 20° NE 22:05:26 10° NNE
Meteor 1-5 Rocket 3.9 22:02:22 66° ESE 22:02:43 68° E 22:07:59 10° NNE
Atlas Centaur 2 2.5 21:57:54 10° W 22:05:42 87° N 22:07:34 51° E
Cosmos 1954 Rocket 4.1 22:02:46 10° NNW 22:08:05 75° WSW 22:09:00 60° SSW
Cosmos 1140 Rocket 3.3 22:03:06 10° NNW 22:08:21 90° WNW 22:08:46 77° SSE
Meteor 1-29 4.4 22:05:25 10° N 22:07:40 34° NNW 22:07:40 34° NNW
Cosmos 2360 Rocket 3.5 22:12:28 26° NE 22:12:28 26° NE 22:14:59 10° NNE
Cosmos 1300 Rocket 3.8 22:10:26 61° W 22:10:38 62° W 22:14:54 10° N
NOSS 2-3 (C) 4.2 22:06:58 10° SW 22:11:28 61° WNW 22:16:28 10° NNE
CZ-4C R/B 4.1 22:05:39 10° NW 22:12:33 38° WSW 22:17:50 18° SSW
Milstar 3 4.1 21:55:58 10° W 22:13:26 55° SSW 22:17:24 39° SSE
Cosmos 44 Rocket 3.4 22:12:11 10° NNW 22:16:28 72° NW 22:16:28 72° NW
Meteor 2-4 Rocket 3.5 22:11:25 10° N 22:17:00 88° E 22:17:18 81° SSE
YAOGAN 6 4.3 22:18:33 31° WNW 22:18:33 31° WNW 22:21:11 10° NNW
Cosmos 614 Rocket 4.0 22:15:46 10° NNW 22:20:38 77° WNW 22:20:38 77° WNW
MetOp-B 4.3 22:22:33 63° NNE 22:22:33 63° NNE 22:27:13 10° N
NOAA 11 4.1 22:24:56 81° WSW 22:25:00 82° WSW 22:30:31 10° NNW
ERS-1 Rocket 3.1 22:26:00 68° NNW 22:26:00 68° NNW 22:30:22 10° NNW
SPOT 5 4.1 22:27:38 33° NNE 22:27:38 33° NNE 22:30:31 10° N
ATLAS 3B R/B 4.0 22:51:05 10° N 22:55:33 27° NE 22:55:33 27° NE
Centaur D AC-29 4.0 22:52:18 10° SW 22:58:07 23° SW 22:58:07 23° SW
Lacrosse 5 rocket 4.3 22:59:56 10° NW 23:00:24 13° NW 23:00:24 13° NW
ATLAS 2AS CENTAUR R/B 4.1 23:10:19 10° WSW 23:17:20 40° NW 23:24:48 10° NNE
Cosmos 2263 Rocket 3.8 23:22:48 10° NNW 23:25:54 30° NW 23:25:54 30° NW
H-2A R/B 4.4 23:43:41 19° NW 23:43:41 19° NW 23:45:19 10° NW
Cosmos 2360 Rocket 4.5 23:54:08 18° NW 23:54:08 18° NW 23:57:37 10° NNW
